Погода в Ларине

Россия / Челябинская область     56°17′27″N   61°17′44″E
темп.,
°C
ветер,
м/с
пор.,
м/с
влажн.,
%
обл.,
%
осадки,
мм/ч
давл.,
гПа
погр.,
м
16 мая, вс
вс1623:00+22сз5125066 0.0 1020508
02:00+18зсз356429 0.0 102089
05:00+18з412605 0.0 1020224
08:00+24з5104524 0.0 1019421
11:00+29з572989 0.0 10191463
14:00+32з581896 0.0 10193619
17:00+31зюз571928 0.0 10183711
20:00+26зюз49325 0.0 1018282
17 мая, пн
пн1723:00+20зюз310455 0.0 1019155
02:00+19зюз4124713 0.0 1018216
05:00+18з310540 0.0 1019163
08:00+24зюз510401 0.0 1019339
11:00+29зюз610255 0.0 10183134
14:00+31з792058 0.0 10173993
17:00+30з6924100 0.0 10163731
20:00+26з511345 0.1 1015587
18 мая, вт
вт1823:00+21зюз3955100 0.2 1015213
02:00+19з5135983 0.0 1015450
05:00+17з397188 0.0 1015225
08:00+21зсз59540 0.0 1015722
11:00+24сз693920 0.0 10151962
14:00+25ссз58309 0.0 10152653
17:00+21с785014 0.0 10181588
20:00+14ссв610660 0.0 1021821
19 мая, ср
ср1923:00+12св61063100 0.0 10241162
02:00+10св387130 0.0 1025490
05:00+9ссв38740 0.0 1026285
08:00+12всв46525 0.0 1027784
11:00+16в3437100 0.0 10261273
14:00+19в3332100 0.0 10251432
17:00+19в223223 0.0 10251416
20:00+17ююв22450 0.0 102427
20 мая, чт
чт2023:00+12ююз22545 0.0 102519
02:00+10ююз22595 0.0 102516
05:00+9юз34649 0.0 102568
08:00+15ююз36475 0.0 1025370
11:00+22юз34305 0.0 10231186
14:00+25юз24240 0.0 10211937
17:00+26зюз34230 0.0 10192245
20:00+22з34390 0.0 101979